Weather reports worldwide

Advertisment
Herstmonceux, United Kingdom (3882): temperature & dewpoint: 18.05.2018 07:00:00 - 24.05.2018 07:00:00 (BST)Herstmonceux, United Kingdom (3882): temperature -20cm & temperature -100cm: 18.05.2018 07:00:00 - 24.05.2018 07:00:00 (BST)Herstmonceux, United Kingdom (3882): wind speed: 18.05.2018 07:00:00 - 24.05.2018 07:00:00 (BST)Herstmonceux, United Kingdom (3882): wind direction: 18.05.2018 07:00:00 - 24.05.2018 07:00:00 (BST)Herstmonceux, United Kingdom (3882): reduced air pressure: 18.05.2018 07:00:00 - 24.05.2018 07:00:00 (BST)Herstmonceux, United Kingdom (3882): visibility: 18.05.2018 07:00:00 - 24.05.2018 07:00:00 (BST)Herstmonceux, United Kingdom (3882): sunshine duration: 18.05.2018 07:00:00 - 24.05.2018 07:00:00 (BST)Herstmonceux, United Kingdom (3882): precipitation: 18.05.2018 07:00:00 - 24.05.2018 07:00:00 (BST)
Date & Time tt [°C] td [°C] tt -20cm [°C] tt -100cm [°C] ff [km/h] ff [kn] dd ppp [hPa] vv [km] sd [min] rr [mm]
24.05.2018 07:00:00 12,2 11,5 - - 11 6 NNE 1019,4 5 0 0,0
24.05.2018 06:00:00 12,1 11,5 - - 11 6 NE 1019,6 5 0 0,2
24.05.2018 05:00:00 12,0 11,4 - - 9 5 NE 1019,4 4,7 0 1,0
24.05.2018 04:00:00 12,3 11,2 - - 11 6 NE 1019,6 9 0 0,0
24.05.2018 03:00:00 12,4 11,0 - - 11 6 NE 1020,3 8 0 0,0
24.05.2018 02:00:00 12,5 11,0 - - 11 6 NNE 1020,1 10 0 0,0
24.05.2018 01:00:00 12,8 10,9 - - 11 6 NNE 1020,4 11 - 0,0
24.05.2018 00:00:00 13,6 10,2 - - 11 6 ENE 1021,2 16 0 0,0
23.05.2018 23:00:00 13,7 10,4 - - 11 6 NE 1020,9 15 0 0,0
23.05.2018 22:00:00 13,9 10,6 - - 13 7 NNE 1021,1 14 0 0,0
23.05.2018 21:00:00 14,4 11,1 - - 9 5 NE 1021,1 13 0 0,0
23.05.2018 20:00:00 15,4 12,1 - - 9 5 NE 1020,7 13 0 0,0
23.05.2018 19:00:00 15,2 11,7 - - 13 7 NE 1020,8 11 0 0,0
23.05.2018 18:00:00 16,8 12,5 - - 11 6 NE 1020,8 14 0 0,0
23.05.2018 17:00:00 16,4 12,3 - - 11 6 NNE 1021,1 15 0 0,0
23.05.2018 16:00:00 17,1 12,0 - - 9 5 NE 1021,2 16 0 0,0
23.05.2018 15:00:00 17,2 11,6 - - 9 5 NE 1021,5 16 12 0,0
23.05.2018 14:00:00 18,8 12,1 - - 13 7 NE 1021,5 16 36 0,0
23.05.2018 13:00:00 18,3 11,6 - - 16 9 NNE 1021,6 35 54 0,0
23.05.2018 12:00:00 17,4 10,7 - - 15 8 NNE 1021,7 17 60 0,0
23.05.2018 11:00:00 16,5 10,4 - - 11 6 NNE 1021,8 14 54 0,0
23.05.2018 10:00:00 14,1 8,7 16,0 14,0 16 9 NNE 1021,9 16 54 0,0
23.05.2018 09:00:00 13,3 8,6 - - 16 9 NNE 1022,0 18 60 0,0
23.05.2018 08:00:00 11,5 8,8 - - 16 9 NNE 1021,5 10 60 0,0
23.05.2018 07:00:00 10,3 8,3 - - 16 9 NNE 1021,2 10 0 0,0
23.05.2018 06:00:00 9,6 8,0 - - 16 9 NNE 1020,3 8 0 0,0
23.05.2018 05:00:00 9,5 8,0 - - 16 9 NNE 1020,1 8 0 0,0
23.05.2018 04:00:00 9,5 7,9 - - 9 5 NNE 1020,1 8 0 0,0
23.05.2018 03:00:00 9,8 8,1 - - 9 5 NNE 1020,0 8 0 0,0
23.05.2018 02:00:00 10,3 8,3 - - 11 6 NNE 1019,9 10 0 0,0
23.05.2018 01:00:00 11,2 8,7 - - 13 7 NNE 1019,5 10 - 0,0
23.05.2018 00:00:00 12,5 9,5 - - 13 7 NNE 1019,4 14 0 0,0
22.05.2018 23:00:00 13,9 10,4 - - 11 6 NNE 1018,9 18 0 0,0
22.05.2018 22:00:00 14,0 11,8 - - 4 2 NE 1018,6 18 0 0,0
22.05.2018 21:00:00 14,4 11,5 - - 2 1 NE 1017,8 12 18 0,0
22.05.2018 20:00:00 17,8 12,1 - - 4 2 WSW 1017,1 19 60 0,0
22.05.2018 19:00:00 20,8 14,4 - - 5 3 ENE 1016,5 24 48 0,0
22.05.2018 18:00:00 17,8 12,4 - - 5 3 NE 1016,0 35 0 0,2
22.05.2018 17:00:00 21,2 10,6 - - 15 8 NNE 1015,3 30 36 0,0
22.05.2018 16:00:00 23,3 12,2 - - 9 5 NNE 1015,1 23 54 0,0
22.05.2018 15:00:00 21,6 12,5 - - 13 7 NNE 1015,4 24 12 0,0
22.05.2018 14:00:00 21,0 11,7 - - 13 7 NNE 1015,4 29 54 0,0
22.05.2018 13:00:00 19,6 12,3 - - 11 6 NNE 1015,3 29 12 0,0
22.05.2018 12:00:00 16,8 10,6 - - 9 5 NNE 1015,3 30 18 0,0
22.05.2018 11:00:00 17,4 10,8 - - 11 6 NNE 1015,0 26 36 0,0
22.05.2018 10:00:00 16,0 10,0 15,9 14,0 11 6 NNE 1014,8 22 0 0,0
22.05.2018 09:00:00 14,7 9,1 - - 9 5 NNE 1014,6 30 0 0,0
22.05.2018 08:00:00 13,8 8,4 - - 13 7 NNE 1014,4 23 0 0,0
22.05.2018 07:00:00 13,6 9,0 - - 15 8 NNE 1013,8 24 0 0,0
22.05.2018 06:00:00 13,7 9,2 - - 8 4 N 1013,5 35 0 0,0
22.05.2018 05:00:00 12,8 9,3 - - 8 4 NNW 1013,0 22 0 0,0
22.05.2018 04:00:00 14,0 9,3 - - 8 4 N 1012,9 35 0 0,0
22.05.2018 03:00:00 13,7 9,4 - - 5 3 NNW 1013,1 25 0 0,0
22.05.2018 02:00:00 13,9 9,2 - - 9 5 N 1013,2 26 0 0,0
22.05.2018 01:00:00 14,1 8,0 - - 4 2 NE 1013,4 30 - 0,0
22.05.2018 00:00:00 13,7 7,8 - - 5 3 NNE 1013,7 26 0 0,0
21.05.2018 23:00:00 14,4 7,7 - - 5 3 NNE 1013,9 35 0 0,0
21.05.2018 22:00:00 14,8 8,3 - - 5 3 NNE 1014,1 30 0 0,0
21.05.2018 21:00:00 16,3 9,7 - - 5 3 NNE 1013,8 30 0 0,0
21.05.2018 20:00:00 18,3 9,2 - - 4 2 NE 1013,6 35 36 0,0
21.05.2018 19:00:00 20,9 10,1 - - 8 4 ENE 1013,4 35 54 0,0
21.05.2018 18:00:00 21,3 8,7 - - 11 6 ENE 1013,3 40 54 0,0
21.05.2018 17:00:00 22,3 10,8 - - 13 7 E 1013,2 24 54 0,0
21.05.2018 16:00:00 22,3 11,5 - - 11 6 ENE 1013,6 35 24 0,0
21.05.2018 15:00:00 20,7 10,9 - - 11 6 NNE 1014,1 24 42 0,0
21.05.2018 14:00:00 19,0 11,0 - - 13 7 NNE 1014,6 26 0 0,0
21.05.2018 13:00:00 18,6 11,5 - - 8 4 NNE 1014,8 30 0 0,0
21.05.2018 12:00:00 18,6 12,8 - - 5 3 NNE 1015,4 21 0 0,0
21.05.2018 11:00:00 17,1 12,3 - - 5 3 ENE 1015,9 14 0 0,0
21.05.2018 10:00:00 15,5 11,6 15,7 13,9 9 5 ENE 1016,1 11 0 0,0
21.05.2018 09:00:00 14,7 10,9 - - 9 5 ENE 1016,3 11 12 0,0
21.05.2018 08:00:00 14,3 11,2 - - 8 4 ENE 1016,5 10 36 0,0
21.05.2018 07:00:00 12,2 10,6 - - 5 3 NE 1016,5 6 0 0,0
21.05.2018 06:00:00 9,9 9,0 - - 8 4 NE 1016,7 3,8 0 0,0
21.05.2018 05:00:00 10,0 8,8 - - 9 5 ENE 1016,9 4,3 0 0,0
21.05.2018 04:00:00 9,9 7,8 - - 9 5 NE 1017,4 6 0 0,0
21.05.2018 03:00:00 9,5 7,4 - - 8 4 NNE 1017,7 7 0 0,0
21.05.2018 02:00:00 9,3 7,1 - - 5 3 NE 1018,6 7 0 0,0
21.05.2018 01:00:00 9,7 7,5 - - 8 4 ENE 1019,0 7 - 0,0
21.05.2018 00:00:00 9,3 7,4 - - 5 3 ENE 1019,7 5 0 0,0
20.05.2018 23:00:00 10,6 8,5 - - 9 5 ENE 1019,7 7 0 0,0
20.05.2018 22:00:00 11,8 8,9 - - 5 3 NE 1020,0 8 0 0,0
20.05.2018 21:00:00 14,2 10,4 - - 9 5 E 1020,0 13 18 0,0
20.05.2018 20:00:00 17,1 11,3 - - 8 4 E 1019,5 21 60 0,0
20.05.2018 19:00:00 18,7 11,8 - - 11 6 E 1019,3 14 60 0,0
20.05.2018 18:00:00 19,6 11,6 - - 9 5 ESE 1019,4 24 42 0,0
20.05.2018 17:00:00 20,0 10,1 - - 8 4 E 1019,9 20 54 0,0
20.05.2018 16:00:00 19,7 10,4 - - 8 4 ESE 1020,6 22 60 0,0
20.05.2018 15:00:00 19,2 11,4 - - 9 5 ESE 1021,4 23 60 0,0
20.05.2018 14:00:00 17,1 10,7 - - 8 4 NE 1022,1 10 48 0,0
20.05.2018 13:00:00 15,1 10,7 - - 8 4 E 1022,9 10 12 0,0
20.05.2018 12:00:00 12,7 9,6 - - 9 5 E 1023,3 8 0 0,0
20.05.2018 11:00:00 11,0 9,3 - - 8 4 ENE 1023,6 5 0 0,0
20.05.2018 10:00:00 10,0 9,0 15,5 13,7 8 4 E 1024,0 4,1 0 0,0
20.05.2018 09:00:00 9,4 8,9 - - 5 3 E 1023,9 2,2 0 0,0
20.05.2018 08:00:00 8,6 8,4 - - 5 3 ENE 1024,0 1,5 0 0,0
20.05.2018 07:00:00 8,3 8,1 - - 4 2 ENE 1023,6 1,1 0 0,0
20.05.2018 06:00:00 8,0 7,7 - - 4 2 NE 1023,3 0,6 0 0,0
20.05.2018 05:00:00 8,0 7,7 - - 4 2 E 1023,0 2,0 0 0,0
20.05.2018 04:00:00 7,8 7,6 - - 8 4 E 1023,4 2,6 0 0,0
20.05.2018 03:00:00 8,0 7,9 - - 4 2 E 1023,6 2,5 0 0,0
20.05.2018 02:00:00 8,1 7,9 - - 5 3 ENE 1023,9 0,5 0 0,0
20.05.2018 01:00:00 7,4 7,2 - - 4 2 E 1024,3 2,6 - 0,0
20.05.2018 00:00:00 7,1 6,6 - - 4 2 ENE 1024,5 5 0 0,0
19.05.2018 23:00:00 7,8 7,2 - - 4 2 NE 1024,4 10 0 0,0
19.05.2018 22:00:00 7,8 6,5 - - 0 0 N 1023,9 7 0 0,0
19.05.2018 21:00:00 9,6 7,4 - - 2 1 SSE 1023,5 16 24 0,0
19.05.2018 20:00:00 11,3 7,7 - - 8 4 S 1023,0 25 60 0,0
19.05.2018 19:00:00 13,3 8,2 - - 4 2 S 1023,1 24 60 0,0
19.05.2018 18:00:00 13,5 8,4 - - 8 4 S 1023,4 25 60 0,0
19.05.2018 17:00:00 13,8 8,2 - - 9 5 S 1023,6 30 60 0,0
19.05.2018 16:00:00 14,3 8,9 - - 9 5 S 1023,9 28 60 0,0
19.05.2018 15:00:00 14,2 8,9 - - 13 7 S 1024,0 16 60 0,0
19.05.2018 14:00:00 14,5 8,9 - - 9 5 S 1024,2 17 60 0,0
19.05.2018 13:00:00 14,8 9,5 - - 11 6 S 1024,5 18 60 0,0
19.05.2018 12:00:00 13,9 8,9 - - 9 5 S 1024,9 14 60 0,0
19.05.2018 11:00:00 13,7 8,8 - - 8 4 SSE 1024,9 13 42 0,0
19.05.2018 10:00:00 12,2 7,3 15,0 13,7 4 2 WSW 1025,0 18 36 0,0
19.05.2018 09:00:00 11,8 9,2 - - 5 3 E 1024,9 17 60 0,0
19.05.2018 08:00:00 9,6 9,4 - - 4 2 E 1024,7 10 54 0,0
19.05.2018 07:00:00 6,3 6,3 - - 2 1 ENE 1024,4 9 0 0,0
19.05.2018 06:00:00 3,9 3,7 - - 4 2 ENE 1024,4 9 0 0,0
19.05.2018 05:00:00 3,6 3,1 - - 4 2 E 1024,2 11 0 0,0
19.05.2018 04:00:00 5,5 5,3 - - 4 2 NNE 1024,2 6 0 0,0
19.05.2018 03:00:00 5,5 5,2 - - 2 1 NNE 1024,4 6 0 0,0
19.05.2018 02:00:00 5,7 5,3 - - 4 2 NNE 1024,7 8 0 0,0
19.05.2018 01:00:00 5,9 5,3 - - 2 1 NE 1024,8 7 - 0,0
19.05.2018 00:00:00 6,6 5,9 - - 4 2 ENE 1025,0 9 0 0,0
18.05.2018 23:00:00 7,3 6,5 - - 0 0 N 1025,1 11 0 0,0
18.05.2018 22:00:00 7,7 6,5 - - 2 1 SSW 1025,1 10 0 0,0
18.05.2018 21:00:00 9,0 6,8 - - 4 2 SW 1024,9 14 0 0,0
18.05.2018 20:00:00 10,3 7,0 - - 5 3 S 1024,7 15 6 0,0
18.05.2018 19:00:00 11,8 6,9 - - 5 3 S 1024,6 15 60 0,0
18.05.2018 18:00:00 12,0 7,0 - - 8 4 S 1024,6 16 54 0,0
18.05.2018 17:00:00 12,4 7,4 - - 9 5 S 1024,8 22 60 0,0
18.05.2018 16:00:00 13,3 7,8 - - 11 6 SSW 1024,8 18 60 0,0
18.05.2018 15:00:00 13,3 8,0 - - 13 7 S 1024,9 18 60 0,0
18.05.2018 14:00:00 14,3 7,5 - - 9 5 S 1025,1 14 60 0,0
18.05.2018 13:00:00 13,5 6,9 - - 9 5 S 1025,4 21 48 0,0
18.05.2018 12:00:00 14,3 6,8 - - 8 4 NE 1025,7 29 54 0,0
18.05.2018 11:00:00 13,1 6,3 - - 8 4 ENE 1025,9 16 54 0,0
18.05.2018 10:00:00 11,5 5,5 15,0 13,7 5 3 E 1026,2 26 42 0,0
18.05.2018 09:00:00 10,7 6,3 - - 11 6 E 1026,3 20 54 0,0
18.05.2018 08:00:00 8,1 5,7 - - 9 5 NNE 1026,5 20 54 0,0
18.05.2018 07:00:00 6,1 5,5 - - 8 4 NNE 1026,2 14 0 0,0

tt = temperature
td = dewpoint
tt -20cm = temperature -20cm
tt -100cm = temperature -100cm
ff = wind speed
dd = wind direction
ppp = reduced air pressure
vv = visibility
sd = sunshine duration
rr = precipitation

Next stations